User: anonymous   Login
Location: Unspecified
(0.0000°N, 0.0000°E)
Time: 02:05:49
(UTC+00:00)
Language:

STARLINK-35844 - Orbit

View from above orbital plane
View from above orbital plane
View from above satellite
View from above satellite

Ground track
Ground track

The orbit is defined by the following mean orbital elements,

1 66880U          26144.95817398 +.00000000 +00000-0 +47759-3 0 00003
2 66880  53.1599  29.7346 0000853  86.4118 273.6980 15.30208094    04
Epoch (UTC): 24 May 2026 22:59:46
Eccentricity: 0.0000853
inclination: 53.1599°
perigee height: 475 km
apogee height: 476 km
right ascension of ascending node: 29.7346°
argument of perigee: 86.4118°
revolutions per day: 15.30208094
mean anomaly at epoch: 273.6980°

The dashed part of the orbit path shows where the satellite is in the earth's shadow,  

DLR